Change the Weather History Date:

Friday, December 21, 2012

  Actual Average (KESC) Record (KESC)
Temperature  
Mean Temperature 26 °F -  
Max Temperature 30 °F 28 °F 46 °F (1967)
Min Temperature 22 °F 15 °F -14 °F (1989)
Degree Days  
Heating Degree Days 39    
Moisture  
Dew Point 24 °F    
Average Humidity 89    
Maximum Humidity 94    
Minimum Humidity 80    
Precipitation  
Precipitation 0.00 in - - ()
Sea Level Pressure  
Sea Level Pressure 29.74 in    
Wind  
Wind Speed 29 mph (North)    
Max Wind Speed 38 mph    
Max Gust Speed 52 mph    
Visibility 5 miles    
Events Snow    
Averages and records for this station are not official NWS values.
T = Trace of Precipitation, MM = Missing Value Source: NWS Daily Summary

Daily Weather History Graph

Daily Weather History Graph

Search for Another Location

Airport or City:

Trip Planner

Search our weather history database for the weather conditions in past years. The results will help you decide how hot, cold, wet, or windy it might be!

Date:

Astronomy

Dec. 21, 2012 Rise Set
Actual Time 8:30 AM EST 5:05 PM EST
Civil Twilight 7:55 AM EST 5:40 PM EST
Nautical Twilight 7:16 AM EST 6:19 PM EST
Astronomical Twilight 6:40 AM EST 6:55 PM EST
Moon 1:05 PM EST (12/21) 2:01 AM EST (12/21)
Length of Visible Light 9h 45m
Length of Day
8h 35m
Waxing Gibbous, 64% of the Moon is Illuminated
Dec 21
Waxing Gibbous
Dec 28
Full
Jan 4
Last Quarter
Jan 11
New
Jan 18
First Quarter

Hourly Weather History & Observations

Time (EST) Temp. Windchill Dew Point Humidity Pressure Visibility Wind Dir Wind Speed Gust Speed Precip Events Conditions
12:16 AM 30.2 °F 14.9 °F 28.6 °F 94% 29.49 in - North 31.1 mph 47.2 mph N/A   Overcast
12:37 AM 30.0 °F 14.5 °F 28.4 °F 94% 29.50 in - North 32.2 mph 44.9 mph N/A   Overcast
12:57 AM 30.2 °F 14.1 °F 28.4 °F 93% 29.50 in - North 35.7 mph 46.0 mph N/A   Overcast
1:16 AM 30.0 °F 13.6 °F 28.4 °F 94% 29.50 in - North 36.8 mph 47.2 mph N/A   Overcast
1:37 AM 30.2 °F 13.9 °F 28.8 °F 94% 29.50 in - North 36.8 mph 46.0 mph N/A   Overcast
1:57 AM 30.4 °F 14.7 °F 28.9 °F 94% 29.51 in - North 33.4 mph 51.8 mph N/A   Overcast
2:17 AM 30.2 °F 14.3 °F 28.4 °F 93% 29.52 in - North 34.5 mph 50.6 mph N/A   Overcast
2:37 AM 29.8 °F 13.2 °F 28.0 °F 93% 29.53 in - North 38.0 mph 43.7 mph N/A   Overcast
2:56 AM 29.5 °F 13.3 °F 27.5 °F 92% 29.56 in - North 34.5 mph 44.9 mph N/A   Unknown
3:17 AM 29.3 °F 13.0 °F 27.5 °F 93% 29.56 in - North 34.5 mph 51.8 mph N/A   Unknown
3:37 AM 29.1 °F 12.6 °F 27.3 °F 93% 29.57 in - North 35.7 mph 48.3 mph N/A   Overcast
3:57 AM 28.9 °F 11.9 °F 26.8 °F 92% 29.57 in - North 38.0 mph 49.5 mph N/A   Overcast
4:17 AM 28.8 °F 12.7 °F 26.6 °F 92% 29.58 in - North 32.2 mph 44.9 mph N/A   Overcast
4:37 AM 28.4 °F 12.0 °F 26.6 °F 93% 29.59 in - North 33.4 mph 39.1 mph N/A Snow Light Snow
4:57 AM 28.4 °F 13.0 °F 26.2 °F 92% 29.60 in 1.0 mi North 28.8 mph 46.0 mph N/A Snow Light Snow
5:17 AM 28.4 °F 11.4 °F 26.2 °F 92% 29.60 in 1.2 mi North 36.8 mph 46.0 mph N/A Snow Light Snow
5:37 AM 28.2 °F 11.3 °F 25.7 °F 90% 29.62 in 1.0 mi North 35.7 mph 44.9 mph N/A Snow Light Snow
5:57 AM 28.0 °F 12.8 °F 25.7 °F 91% 29.64 in 1.2 mi North 27.6 mph 41.4 mph N/A Snow Light Snow
6:50 AM 28.4 °F 13.3 °F 24.8 °F 86% 29.68 in 1.2 mi North 27.6 mph 43.7 mph N/A Snow Light Snow
7:50 AM 26.6 °F 10.0 °F 24.8 °F 93% 29.71 in 1.2 mi North 31.1 mph 44.9 mph N/A Snow Light Snow
8:55 AM 26.6 °F 10.6 °F 23.0 °F 86% 29.76 in 0.8 mi North 28.8 mph 40.3 mph N/A Snow Light Snow
9:50 AM 26.6 °F 10.8 °F 23.0 °F 86% 29.79 in 0.8 mi North 27.6 mph 39.1 mph N/A Snow Light Snow
10:50 AM 24.8 °F 10.0 °F 23.0 °F 93% 29.83 in 1.0 mi North 21.9 mph 35.7 mph N/A Snow Light Snow
11:50 AM 24.8 °F 9.3 °F 23.0 °F 93% 29.86 in 1.5 mi NNW 24.2 mph 34.5 mph N/A Snow Light Snow
12:45 PM 24.8 °F 9.6 °F 23.0 °F 93% - 1.8 mi North 23.0 mph 35.7 mph N/A   Overcast
1:50 PM 24.8 °F 10.0 °F 23.0 °F 93% 29.88 in 1.8 mi North 21.9 mph 31.1 mph N/A Snow Light Snow
2:50 PM 24.8 °F 10.0 °F 21.2 °F 86% 29.90 in 3.0 mi NNW 21.9 mph 33.4 mph N/A Snow Light Snow
3:45 PM 24.8 °F 10.3 °F 21.2 °F 86% 29.92 in 4.0 mi NNW 20.7 mph 29.9 mph N/A Snow Light Snow
4:50 PM 23.0 °F 8.7 °F 19.4 °F 86% 29.96 in 7.0 mi NNW 18.4 mph 23.0 mph N/A   Overcast
5:50 PM 23.0 °F 9.2 °F 19.4 °F 86% 29.99 in 10.0 mi NNW 17.3 mph 25.3 mph N/A   Overcast
6:50 PM 23.0 °F 9.6 °F 17.6 °F 80% 30.00 in 10.0 mi NNW 16.1 mph 25.3 mph N/A   Overcast
7:50 PM 23.0 °F 10.6 °F 17.6 °F 80% 30.01 in 10.0 mi NNW 13.8 mph 21.9 mph N/A   Overcast
8:50 PM 23.0 °F 10.6 °F 17.6 °F 80% 30.00 in 10.0 mi NNW 13.8 mph 25.3 mph N/A   Overcast
10:17 PM 23.0 °F 12.4 °F 18.0 °F 81% 30.00 in 10.0 mi NNW 10.4 mph 20.7 mph N/A   Overcast
10:37 PM 23.0 °F 10.1 °F 18.0 °F 81% 30.01 in 10.0 mi NNW 15.0 mph 20.7 mph N/A   Overcast
10:57 PM 23.0 °F 10.1 °F 18.0 °F 81% 30.01 in 10.0 mi NNW 15.0 mph 19.6 mph N/A   Overcast
11:17 PM 22.8 °F 11.5 °F 18.0 °F 82% 30.01 in 10.0 mi NNW 11.5 mph - N/A   Overcast
11:37 PM 22.6 °F 11.9 °F 17.8 °F 82% 30.01 in 10.0 mi NNW 10.4 mph 16.1 mph N/A   Overcast
11:57 PM 22.6 °F 10.7 °F 17.4 °F 80% 30.02 in 10.0 mi NNW 12.7 mph 23.0 mph N/A   Overcast